Location: Holyhead Bay
(53.3667°N, 4.6667°W)
Time: 19:01:48
(UTC+00:00)

AQUARIUS - Pass Details

Date: 24 November 2020
Orbit: 650 x 652 km, 98.0° (Epoch: 17 January)

Event Time Altitude Azimuth Distance (km) Brightness Sun altitude
Rises 16:57:14 0° 145° (SE) 2,966 7.5 -6.9°
Reaches altitude 10° 16:59:30 10° 139° (SE) 2,059 6.6 -7.2°
Maximum altitude 17:03:47 45° 67° (ENE) 890 4.4 -7.8°
Drops below altitude 10° 17:08:05 10° 355° (N) 2,074 6.6 -8.4°
Sets 17:10:23 0° 350° (N) 2,990 7.4 -8.7°
